Weather in Novozarechensk

Russia / Republic of Tatarstan     54°09′52″N   53°25′48″E
temp.,
°C
wind,
m/s
gust,
m/s
humid.,
%
clouds,
%
prec.,
mm/h
press.,
hPa
HPBL,
m
26 january, tue
tue2600:00−4ssw51094100 0.1 1032641
03:00−4ssw41094100 0.1 1031550
06:00−4s4996100 0.1 1030370
09:00−6s51096100 0.1 1031353
12:00−6s51095100 0.0 1030367
15:00−5s61194100 0.1 1029428
18:00−6s51393100 0.0 1030408
21:00−7s61393100 0.0 1029416
27 january, wed
wed2700:00−6ssw61194100 0.1 1030542
03:00−5ssw51194100 0.1 1030574
06:00−6s61194100 0.1 1029524
09:00−6s61095100 0.1 1030448
12:00−6s61195100 0.1 1030452
15:00−6s61394100 0.1 1029414
18:00−7s61593100 0.0 1028376
21:00−7s61593100 0.0 1027385
28 january, thu
thu2800:00−6s71591100 0.0 1027397
03:00−7s71588100 0.0 1026371
06:00−8s61589100 0.0 1025363
09:00−8s61489100 0.0 1025376
12:00−7s61288100 0.0 1024390
15:00−8s41091100 0.0 1023334
18:00−10sse3894100 0.0 1023195
21:00−9sse3893100 0.0 1022256
29 january, fri
fri2900:00−10sse3492100 0.0 102285
03:00−10sse3490100 0.0 102080
06:00−8sse3988100 0.0 1018208
09:00−7se31185100 0.0 1016277
12:00−3sse51379100 0.0 1014414
15:00−3se51381100 0.0 1012410
18:00−4sse61484100 0.0 1010506
21:00−4sse61494100 0.9 1009551
30 january, sat
sat3000:00−4sse61395100 0.4 1008538
03:00−4sse6139498 0.9 1009394
06:00−1sw5109396 0.1 1010534
09:00−3s489697 0.1 1012291
12:00−3s479595 0.0 1012314
15:00−4sse379598 0.0 1012244
18:00−6se349588 0.0 101270
21:00−6sse399391 0.0 1010183